Location: Austin
(30.3000°N, 97.7500°W)
Time: 12:25:46
(UTC-05:00)

Cosmos 1151 Rocket - Pass Details

Date: 05 September 2024
Orbit: 587 x 610 km, 82.5° (Epoch: 11 September)

Event Time Altitude Azimuth Distance (km) Brightness Sun altitude
Rises 21:26:54 0° 350° (N) 2,834 6.9 -21.5°
Reaches altitude 10° 21:29:07 10° 348° (NNW) 1,926 6.0 -21.9°
Maximum altitude 21:33:20 66° 266° (W) 646 3.2 -22.7°
Enters shadow 21:34:57 35° 196° (SSW) 951 3.9 -23.1°
